| time (UTC) | temp F | wind direction | speed MPH | gust MPH | rain 1hr in | rain 24hr in | rain mn in | humidity % | barometer mb |
| 20260906022743 | 75 | 328 | 1.0 | 5.0 | 0.00 | 0.00 | 0.00 | 80 | 1016.2 |
| 20260906022240 | 75 | 328 | 1.0 | 5.0 | 0.00 | 0.00 | 0.00 | 80 | 1016.3 |
| 20260906021740 | 76 | 0 | 0.0 | 5.0 | 0.00 | 0.00 | 0.00 | 80 | 1016.2 |
| 20260906021240 | 76 | 0 | 0.0 | 3.0 | 0.00 | 0.00 | 0.00 | 79 | 1016.1 |
| 20260906020740 | 76 | 0 | 0.0 | 6.0 | 0.00 | 0.00 | 0.00 | 79 | 1016.0 |
| 20260906020240 | 76 | 329 | 1.0 | 6.0 | 0.00 | 0.00 | 0.00 | 79 | 1015.9 |
| 20260906015740 | 76 | 329 | 1.0 | 5.0 | 0.00 | 0.00 | 0.00 | 79 | 1015.9 |
| 20260906015240 | 76 | 0 | 0.0 | 5.0 | 0.00 | 0.00 | 0.00 | 79 | 1015.9 |
| 20260906014741 | 76 | 329 | 1.0 | 6.0 | 0.00 | 0.00 | 0.00 | 79 | 1015.9 |
| 20260906014240 | 76 | 329 | 1.0 | 6.0 | 0.00 | 0.00 | 0.00 | 79 | 1015.8 |
| 20260906013740 | 76 | 0 | 0.0 | 6.0 | 0.00 | 0.00 | 0.00 | 79 | 1015.9 |
| 20260906013240 | 76 | 0 | 0.0 | 5.0 | 0.00 | 0.00 | 0.00 | 79 | 1016.0 |
| 20260906012823 | 76 | 0 | 0.0 | 5.0 | 0.00 | 0.00 | 0.00 | 79 | 1016.0 |
| 20260906012740 | 76 | 0 | 0.0 | 5.0 | 0.00 | 0.00 | 0.00 | 79 | 1016.0 |
| 20260906012240 | 76 | 331 | 1.0 | 5.0 | 0.00 | 0.00 | 0.00 | 79 | 1015.9 |
| 20260906011740 | 76 | 331 | 1.0 | 6.0 | 0.00 | 0.00 | 0.00 | 79 | 1015.7 |
| 20260906011240 | 76 | 331 | 2.0 | 6.0 | 0.00 | 0.00 | 0.00 | 79 | 1015.6 |
| 20260906010740 | 76 | 331 | 2.0 | 6.0 | 0.00 | 0.00 | 0.00 | 79 | 1015.5 |
| 20260906010240 | 76 | 331 | 2.0 | 4.0 | 0.00 | 0.00 | 0.00 | 79 | 1015.5 |
| 20260906005740 | 76 | 331 | 1.0 | 4.0 | 0.00 | 0.00 | 0.00 | 78 | 1015.4 |
| 20260906005240 | 77 | 331 | 2.0 | 6.0 | 0.00 | 0.00 | 0.00 | 78 | 1015.5 |
| 20260906004740 | 77 | 331 | 2.0 | 6.0 | 0.00 | 0.00 | 0.00 | 78 | 1015.4 |
| 20260906004240 | 77 | 0 | 0.0 | 5.0 | 0.00 | 0.00 | 0.00 | 77 | 1015.5 |
| 20260906003740 | 77 | 0 | 0.0 | 4.0 | 0.00 | 0.00 | 0.00 | 76 | 1015.4 |
| 20260906003240 | 77 | 331 | 1.0 | 4.0 | 0.00 | 0.00 | 0.00 | 76 | 1015.4 |
| 20260906002740 | 77 | 331 | 1.0 | 5.0 | 0.00 | 0.00 | 0.00 | 76 | 1015.3 |
| 20260906002240 | 77 | 331 | 2.0 | 5.0 | 0.00 | 0.00 | 0.00 | 76 | 1015.2 |
| 20260906001742 | 76 | 331 | 1.0 | 4.0 | 0.00 | 0.00 | 0.00 | 76 | 1015.1 |
| 20260906001242 | 76 | 331 | 1.0 | 6.0 | 0.00 | 0.00 | 0.00 | 76 | 1015.1 |
| 20260906000740 | 77 | 0 | 0.0 | 6.0 | 0.00 | 0.00 | 0.00 | 76 | 1015.1 |
| 20260906000241 | 77 | 0 | 0.0 | 3.0 | 0.00 | 0.00 | 0.00 | 75 | 1015.0 |
| 20260905235740 | 77 | 0 | 0.0 | 3.0 | 0.00 | 0.00 | 0.00 | 75 | 1015.0 |
| 20260905235240 | 77 | 0 | 0.0 | 3.0 | 0.00 | 0.00 | 0.00 | 75 | 1014.9 |
| 20260905234741 | 77 | 0 | 0.0 | 3.0 | 0.00 | 0.00 | 0.00 | 74 | 1014.9 |
| 20260905234243 | 77 | 0 | 0.0 | 4.0 | 0.00 | 0.00 | 0.00 | 74 | 1014.9 |
| 20260905233740 | 78 | 331 | 1.0 | 5.0 | 0.00 | 0.00 | 0.00 | 74 | 1014.8 |
| 20260905233240 | 78 | 0 | 0.0 | 5.0 | 0.00 | 0.00 | 0.00 | 73 | 1014.9 |
| 20260905232740 | 78 | 331 | 1.0 | 9.0 | 0.00 | 0.00 | 0.00 | 73 | 1014.8 |
| 20260905232240 | 78 | 0 | 0.0 | 9.0 | 0.00 | 0.00 | 0.00 | 73 | 1014.6 |
| 20260905231739 | 78 | 0 | 0.0 | 8.0 | 0.00 | 0.00 | 0.00 | 73 | 1014.6 |
| 20260905231241 | 78 | 329 | 1.0 | 8.0 | 0.00 | 0.00 | 0.00 | 73 | 1014.5 |
| 20260905230741 | 78 | 0 | 0.0 | 5.0 | 0.00 | 0.00 | 0.00 | 72 | 1014.6 |
| 20260905230241 | 79 | 0 | 0.0 | 4.0 | 0.00 | 0.00 | 0.00 | 72 | 1014.7 |
| 20260905225740 | 79 | 0 | 0.0 | 4.0 | 0.00 | 0.00 | 0.00 | 72 | 1014.7 |
| 20260905225240 | 79 | 0 | 0.0 | 2.0 | 0.00 | 0.00 | 0.00 | 72 | 1014.7 |
| 20260905224740 | 79 | 0 | 0.0 | 3.0 | 0.00 | 0.00 | 0.00 | 72 | 1014.8 |
| 20260905224240 | 79 | 0 | 0.0 | 3.0 | 0.00 | 0.00 | 0.00 | 72 | 1014.8 |
| 20260905223740 | 79 | 0 | 0.0 | 9.0 | 0.00 | 0.00 | 0.00 | 72 | 1014.8 |
| 20260905223240 | 79 | 325 | 1.0 | 9.0 | 0.00 | 0.00 | 0.00 | 72 | 1014.8 |
| 20260905222740 | 79 | 0 | 0.0 | 8.0 | 0.00 | 0.00 | 0.00 | 72 | 1014.8 |
| 20260905222246 | 79 | 324 | 1.0 | 8.0 | 0.00 | 0.00 | 0.00 | 72 | 1014.9 |
| 20260905221740 | 79 | 0 | 0.0 | 8.0 | 0.00 | 0.00 | 0.00 | 72 | 1014.9 |
| 20260905221240 | 79 | 0 | 0.0 | 8.0 | 0.00 | 0.00 | 0.00 | 71 | 1014.9 |
| 20260905220740 | 79 | 0 | 0.0 | 8.0 | 0.00 | 0.00 | 0.00 | 71 | 1015.0 |
| 20260905220240 | 79 | 0 | 0.0 | 8.0 | 0.00 | 0.00 | 0.00 | 70 | 1015.0 |
| 20260905215740 | 79 | 0 | 0.0 | 6.0 | 0.00 | 0.00 | 0.00 | 71 | 1014.9 |
| 20260905215240 | 79 | 310 | 1.0 | 5.0 | 0.00 | 0.00 | 0.00 | 70 | 1014.9 |
| 20260905214742 | 78 | 308 | 1.0 | 5.0 | 0.00 | 0.00 | 0.00 | 71 | 1014.9 |
| 20260905214240 | 78 | 307 | 1.0 | 5.0 | 0.00 | 0.00 | 0.00 | 71 | 1015.0 |
| 20260905213740 | 78 | 305 | 1.0 | 5.0 | 0.00 | 0.00 | 0.00 | 71 | 1015.0 |
| 20260905213239 | 78 | 0 | 0.0 | 7.0 | 0.00 | 0.00 | 0.00 | 70 | 1015.0 |
| 20260905212740 | 78 | 0 | 0.0 | 7.0 | 0.00 | 0.00 | 0.00 | 69 | 1015.1 |
| 20260905212240 | 78 | 0 | 0.0 | 6.0 | 0.00 | 0.00 | 0.00 | 69 | 1015.1 |
| 20260905211740 | 78 | 316 | 1.0 | 8.0 | 0.00 | 0.00 | 0.00 | 68 | 1015.1 |
| 20260905211240 | 78 | 315 | 1.0 | 8.0 | 0.00 | 0.00 | 0.00 | 68 | 1015.0 |
| 20260905210740 | 78 | 313 | 1.0 | 8.0 | 0.00 | 0.00 | 0.00 | 68 | 1015.0 |
| 20260905210240 | 79 | 312 | 2.0 | 8.0 | 0.00 | 0.00 | 0.00 | 68 | 1014.9 |
| 20260905205739 | 79 | 311 | 1.0 | 9.0 | 0.00 | 0.00 | 0.00 | 67 | 1014.8 |
| 20260905205241 | 79 | 309 | 2.0 | 9.0 | 0.00 | 0.00 | 0.00 | 66 | 1014.7 |
| 20260905204741 | 78 | 302 | 2.0 | 8.0 | 0.00 | 0.00 | 0.00 | 67 | 1014.7 |
| 20260905204239 | 79 | 294 | 1.0 | 7.0 | 0.00 | 0.00 | 0.00 | 67 | 1014.8 |
| 20260905203740 | 79 | 291 | 2.0 | 7.0 | 0.00 | 0.00 | 0.00 | 65 | 1014.8 |
| 20260905203240 | 80 | 289 | 1.0 | 5.0 | 0.00 | 0.00 | 0.00 | 65 | 1014.7 |
| 20260905202739 | 80 | 287 | 1.0 | 5.0 | 0.00 | 0.00 | 0.00 | 64 | 1014.7 |
| 20260905202240 | 80 | 283 | 1.0 | 5.0 | 0.00 | 0.00 | 0.00 | 64 | 1014.8 |
| 20260905201742 | 80 | 299 | 1.0 | 8.0 | 0.00 | 0.00 | 0.00 | 65 | 1014.8 |
| 20260905201241 | 80 | 300 | 2.0 | 8.0 | 0.00 | 0.00 | 0.00 | 65 | 1014.8 |
| 20260905200740 | 80 | 287 | 1.0 | 6.0 | 0.00 | 0.00 | 0.00 | 66 | 1014.9 |
| 20260905200239 | 79 | 0 | 0.0 | 5.0 | 0.00 | 0.00 | 0.00 | 65 | 1014.8 |
| 20260905195739 | 80 | 344 | 2.0 | 5.0 | 0.00 | 0.00 | 0.00 | 64 | 1014.8 |
| 20260905195719 | 80 | 0 | 0.0 | 4.0 | 0.00 | 0.00 | 0.00 | 65 | 1014.9 |
| 20260905195239 | 80 | 0 | 0.0 | 4.0 | 0.00 | 0.00 | 0.00 | 65 | 1014.9 |
| 20260905194741 | 80 | 0 | 0.0 | 4.0 | 0.00 | 0.00 | 0.00 | 63 | 1015.0 |
| 20260905194250 | 80 | 0 | 0.0 | 3.0 | 0.00 | 0.00 | 0.00 | 69 | 1015.0 |
| 20260905193855 | 80 | 0 | 0.0 | 3.0 | 0.00 | 0.00 | 0.00 | 69 | 1015.0 |
| 20260905193355 | 79 | 344 | 1.0 | 5.0 | 0.00 | 0.00 | 0.00 | 70 | 1014.4 |
| 20260905192855 | 79 | 0 | 0.0 | 5.0 | 0.00 | 0.00 | 0.00 | 69 | 1014.4 |
| 20260905192355 | 78 | 0 | 0.0 | 5.0 | 0.00 | 0.00 | 0.00 | 69 | 1014.5 |
| 20260905191855 | 77 | 344 | 1.0 | 9.0 | 0.00 | 0.00 | 0.00 | 70 | 1014.6 |
| 20260905191409 | 77 | 344 | 1.0 | 9.0 | 0.00 | 0.00 | 0.00 | 72 | 1014.8 |
| 20260905190855 | 76 | 0 | 0.0 | 9.0 | 0.00 | 0.00 | 0.00 | 74 | 1014.7 |
| 20260905190355 | 76 | 340 | 3.0 | 9.0 | 0.00 | 0.00 | 0.00 | 73 | 1014.7 |
| 20260905185855 | 76 | 338 | 1.0 | 5.0 | 0.00 | 0.00 | 0.00 | 72 | 1014.8 |
| 20260905185355 | 76 | 0 | 0.0 | 6.0 | 0.00 | 0.00 | 0.00 | 70 | 1014.4 |
| 20260905184855 | 75 | 339 | 1.0 | 6.0 | 0.00 | 0.00 | 0.00 | 75 | 1014.0 |
| 20260905184358 | 75 | 339 | 3.0 | 6.0 | 0.00 | 0.00 | 0.00 | 74 | 1013.7 |
| 20260905183855 | 75 | 339 | 3.0 | 8.0 | 0.00 | 0.00 | 0.00 | 78 | 1013.8 |
| 20260905183355 | 76 | 340 | 4.0 | 8.0 | 0.00 | 0.00 | 0.00 | 78 | 1013.8 |
| 20260905182855 | 76 | 340 | 2.0 | 9.0 | 0.00 | 0.00 | 0.00 | 76 | 1014.3 |
| 20260905182355 | 77 | 335 | 4.0 | 12.0 | 0.00 | 0.00 | 0.00 | 74 | 1014.4 |
| 20260905181855 | 77 | 332 | 7.0 | 12.0 | 0.00 | 0.00 | 0.00 | 72 | 1014.5 |
| 20260905181355 | 77 | 344 | 3.0 | 10.0 | 0.00 | 0.00 | 0.00 | 71 | 1014.7 |
| 20260905180855 | 77 | 0 | 0.0 | 10.0 | 0.00 | 0.00 | 0.00 | 72 | 1014.9 |
| 20260905180356 | 78 | 318 | 3.0 | 10.0 | 0.00 | 0.00 | 0.00 | 73 | 1015.3 |
| 20260905175855 | 78 | 327 | 2.0 | 9.0 | 0.00 | 0.00 | 0.00 | 73 | 1015.6 |
| 20260905175355 | 78 | 326 | 4.0 | 14.0 | 0.00 | 0.00 | 0.00 | 71 | 1015.7 |
| 20260905174855 | 79 | 321 | 4.0 | 14.0 | 0.00 | 0.00 | 0.00 | 70 | 1015.8 |
| 20260905174356 | 80 | 344 | 6.0 | 13.0 | 0.00 | 0.00 | 0.00 | 68 | 1016.0 |
| 20260905173855 | 81 | 325 | 5.0 | 16.0 | 0.00 | 0.00 | 0.00 | 69 | 1015.9 |
| 20260905173355 | 83 | 331 | 5.0 | 16.0 | 0.00 | 0.00 | 0.00 | 67 | 1015.7 |
| 20260905172500 | 86 | 326 | 2.0 | 12.0 | 0.00 | 0.00 | 0.00 | 65 | 1016.0 |
| 20260905172001 | 87 | 303 | 3.0 | 10.0 | 0.00 | 0.00 | 0.00 | 64 | 1016.2 |
| 20260905171504 | 87 | 300 | 3.0 | 9.0 | 0.00 | 0.00 | 0.00 | 63 | 1016.2 |
| 20260905171000 | 88 | 300 | 1.0 | 9.0 | 0.00 | 0.00 | 0.00 | 64 | 1016.4 |
| 20260905170502 | 87 | 299 | 1.0 | 11.0 | 0.00 | 0.00 | 0.00 | 64 | 1016.6 |
| 20260905170000 | 87 | 298 | 3.0 | 11.0 | 0.00 | 0.00 | 0.00 | 65 | 1016.6 |
| 20260905165500 | 87 | 296 | 3.0 | 11.0 | 0.00 | 0.00 | 0.00 | 65 | 1016.7 |
| 20260905165000 | 87 | 293 | 1.0 | 7.0 | 0.00 | 0.00 | 0.00 | 66 | 1016.9 |
| 20260905164519 | 87 | 293 | 4.0 | 12.0 | 0.00 | 0.00 | 0.00 | 65 | 1016.9 |
| 20260905164500 | 86 | 293 | 1.0 | 12.0 | 0.00 | 0.00 | 0.00 | 66 | 1016.9 |
| 20260905164002 | 87 | 293 | 4.0 | 12.0 | 0.00 | 0.00 | 0.00 | 65 | 1016.9 |
| 20260905163607 | 87 | 283 | 2.0 | 8.0 | 0.00 | 0.00 | 0.00 | 65 | 1016.8 |
| 20260905163502 | 87 | 283 | 2.0 | 8.0 | 0.00 | 0.00 | 0.00 | 65 | 1016.8 |
| 20260905163000 | 87 | 283 | 1.0 | 7.0 | 0.00 | 0.00 | 0.00 | 66 | 1016.8 |
| 20260905162500 | 86 | 0 | 0.0 | 7.0 | 0.00 | 0.00 | 0.00 | 69 | 1016.8 |
| 20260905162000 | 86 | 282 | 1.0 | 7.0 | 0.00 | 0.00 | 0.00 | 68 | 1016.9 |
| 20260905161836 | 86 | 0 | 0.0 | 7.0 | 0.00 | 0.00 | 0.00 | 69 | 1016.9 |
| 20260905161502 | 86 | 0 | 0.0 | 7.0 | 0.00 | 0.00 | 0.00 | 69 | 1016.9 |
| 20260905161155 | 86 | 282 | 1.0 | 6.0 | 0.00 | 0.00 | 0.00 | 68 | 1016.9 |
| 20260905161000 | 86 | 282 | 1.0 | 6.0 | 0.00 | 0.00 | 0.00 | 68 | 1016.9 |
| 20260905160533 | 86 | 282 | 2.0 | 6.0 | 0.00 | 0.00 | 0.00 | 69 | 1016.9 |
| 20260905160500 | 86 | 282 | 2.0 | 6.0 | 0.00 | 0.00 | 0.00 | 69 | 1016.9 |
| 20260905160001 | 86 | 0 | 0.0 | 4.0 | 0.00 | 0.00 | 0.00 | 67 | 1016.9 |
| 20260905155500 | 86 | 282 | 1.0 | 7.0 | 0.00 | 0.00 | 0.00 | 69 | 1017.0 |
| 20260905155001 | 85 | 0 | 0.0 | 7.0 | 0.00 | 0.00 | 0.00 | 70 | 1017.0 |
| 20260905154743 | 87 | 0 | 0.0 | 7.0 | 0.00 | 0.00 | 0.00 | 68 | 1017.0 |
| 20260905154500 | 86 | 0 | 0.0 | 6.0 | 0.00 | 0.00 | 0.00 | 67 | 1017.1 |
| 20260905154000 | 87 | 0 | 0.0 | 7.0 | 0.00 | 0.00 | 0.00 | 68 | 1017.0 |
| 20260905153501 | 86 | 0 | 0.0 | 7.0 | 0.00 | 0.00 | 0.00 | 68 | 1017.1 |
| 20260905153001 | 86 | 0 | 0.0 | 4.0 | 0.00 | 0.00 | 0.00 | 69 | 1017.0 |
| 20260905152550 | 86 | 282 | 2.0 | 6.0 | 0.00 | 0.00 | 0.00 | 68 | 1017.0 |
| 20260905152503 | 86 | 282 | 2.0 | 6.0 | 0.00 | 0.00 | 0.00 | 68 | 1017.0 |
| 20260905152001 | 86 | 282 | 1.0 | 6.0 | 0.00 | 0.00 | 0.00 | 66 | 1017.0 |
| 20260905151500 | 86 | 0 | 0.0 | 3.0 | 0.00 | 0.00 | 0.00 | 67 | 1017.1 |
| 20260905151000 | 86 | 0 | 0.0 | 3.0 | 0.00 | 0.00 | 0.00 | 68 | 1017.1 |
| 20260905150501 | 86 | 0 | 0.0 | 3.0 | 0.00 | 0.00 | 0.00 | 68 | 1017.1 |
| 20260905150001 | 86 | 0 | 0.0 | 2.0 | 0.00 | 0.00 | 0.00 | 67 | 1017.1 |
| 20260905145500 | 86 | 0 | 0.0 | 3.0 | 0.00 | 0.00 | 0.00 | 66 | 1017.1 |
| 20260905145001 | 86 | 0 | 0.0 | 3.0 | 0.00 | 0.00 | 0.00 | 67 | 1017.1 |
| 20260905144502 | 85 | 0 | 0.0 | 3.0 | 0.00 | 0.00 | 0.00 | 67 | 1017.1 |
| 20260905144001 | 85 | 0 | 0.0 | 4.0 | 0.00 | 0.00 | 0.00 | 68 | 1017.1 |
| 20260905143501 | 85 | 0 | 0.0 | 4.0 | 0.00 | 0.00 | 0.00 | 70 | 1017.1 |
| 20260905143001 | 84 | 0 | 0.0 | 4.0 | 0.00 | 0.00 | 0.00 | 70 | 1017.2 |
| 20260905142500 | 84 | 0 | 0.0 | 4.0 | 0.00 | 0.00 | 0.00 | 70 | 1017.1 |
| 20260905142000 | 84 | 0 | 0.0 | 4.0 | 0.00 | 0.00 | 0.00 | 71 | 1017.0 |
| 20260905141500 | 84 | 282 | 1.0 | 4.0 | 0.00 | 0.00 | 0.00 | 70 | 1017.0 |
| 20260905141000 | 83 | 0 | 0.0 | 10.0 | 0.00 | 0.00 | 0.00 | 70 | 1016.9 |
| 20260905140510 | 83 | 0 | 0.0 | 10.0 | 0.00 | 0.00 | 0.00 | 70 | 1016.8 |
| 20260905140000 | 83 | 0 | 0.0 | 7.0 | 0.00 | 0.00 | 0.00 | 71 | 1016.7 |
| 20260905135500 | 82 | 0 | 0.0 | 7.0 | 0.00 | 0.00 | 0.00 | 73 | 1016.7 |
| 20260905135001 | 82 | 0 | 0.0 | 6.0 | 0.00 | 0.00 | 0.00 | 72 | 1016.6 |
| 20260905134542 | 82 | 0 | 0.0 | 6.0 | 0.00 | 0.00 | 0.00 | 72 | 1016.7 |
| 20260905134500 | 82 | 0 | 0.0 | 6.0 | 0.00 | 0.00 | 0.00 | 72 | 1016.7 |
| 20260905134000 | 82 | 0 | 0.0 | 4.0 | 0.00 | 0.00 | 0.00 | 72 | 1016.8 |
| 20260905133501 | 81 | 0 | 0.0 | 8.0 | 0.00 | 0.00 | 0.00 | 72 | 1016.8 |
| 20260905133003 | 81 | 285 | 1.0 | 8.0 | 0.00 | 0.00 | 0.00 | 72 | 1016.8 |
| 20260905132500 | 81 | 0 | 0.0 | 6.0 | 0.00 | 0.00 | 0.00 | 72 | 1016.7 |
| 20260905132000 | 81 | 285 | 1.0 | 8.0 | 0.00 | 0.00 | 0.00 | 71 | 1016.8 |
| 20260905131500 | 81 | 0 | 0.0 | 8.0 | 0.00 | 0.00 | 0.00 | 72 | 1016.7 |
| 20260905131000 | 81 | 0 | 0.0 | 6.0 | 0.00 | 0.00 | 0.00 | 73 | 1016.7 |
| 20260905130057 | 80 | 0 | 0.0 | 6.0 | 0.00 | 0.00 | 0.00 | 73 | 1016.8 |
| 20260905125600 | 80 | 285 | 1.0 | 8.0 | 0.00 | 0.00 | 0.00 | 73 | 1016.8 |
| 20260905125100 | 80 | 285 | 3.0 | 8.0 | 0.00 | 0.00 | 0.00 | 73 | 1016.8 |
| 20260905124557 | 79 | 285 | 1.0 | 7.0 | 0.00 | 0.00 | 0.00 | 74 | 1016.9 |
| 20260905124058 | 79 | 285 | 1.0 | 8.0 | 0.00 | 0.00 | 0.00 | 74 | 1016.9 |
| 20260905123557 | 79 | 0 | 0.0 | 8.0 | 0.00 | 0.00 | 0.00 | 74 | 1016.9 |
| 20260905123100 | 79 | 284 | 1.0 | 8.0 | 0.00 | 0.00 | 0.00 | 75 | 1016.8 |
| 20260905122557 | 78 | 284 | 1.0 | 10.0 | 0.00 | 0.00 | 0.00 | 75 | 1016.7 |
| 20260905122057 | 78 | 284 | 3.0 | 11.0 | 0.00 | 0.00 | 0.00 | 75 | 1016.7 |
| 20260905121557 | 78 | 283 | 4.0 | 11.0 | 0.00 | 0.00 | 0.00 | 75 | 1016.6 |
| 20260905121057 | 78 | 280 | 4.0 | 8.0 | 0.00 | 0.00 | 0.00 | 75 | 1016.7 |
| 20260905120155 | 77 | 280 | 3.0 | 10.0 | 0.00 | 0.00 | 0.00 | 75 | 1016.8 |
| 20260905115652 | 77 | 280 | 3.0 | 9.0 | 0.00 | 0.00 | 0.00 | 75 | 1016.8 |
| 20260905115158 | 77 | 280 | 3.0 | 9.0 | 0.00 | 0.00 | 0.00 | 76 | 1016.7 |
| 20260905114652 | 77 | 280 | 3.0 | 7.0 | 0.00 | 0.00 | 0.00 | 76 | 1016.6 |
| 20260905114153 | 77 | 280 | 1.0 | 9.0 | 0.00 | 0.00 | 0.00 | 76 | 1016.5 |
| 20260905113653 | 77 | 280 | 2.0 | 9.0 | 0.00 | 0.00 | 0.00 | 76 | 1016.5 |
| 20260905113154 | 77 | 280 | 2.0 | 7.0 | 0.00 | 0.00 | 0.00 | 76 | 1016.5 |
| 20260905112652 | 77 | 280 | 1.0 | 6.0 | 0.00 | 0.00 | 0.00 | 76 | 1016.5 |
| 20260905112152 | 76 | 0 | 0.0 | 6.0 | 0.00 | 0.00 | 0.00 | 76 | 1016.4 |
| 20260905111652 | 76 | 0 | 0.0 | 6.0 | 0.00 | 0.00 | 0.00 | 76 | 1016.3 |
| 20260905111154 | 77 | 280 | 1.0 | 9.0 | 0.00 | 0.00 | 0.00 | 76 | 1016.3 |
| 20260905110654 | 77 | 280 | 3.0 | 9.0 | 0.00 | 0.00 | 0.00 | 75 | 1016.3 |
| 20260905110200 | 77 | 280 | 3.0 | 8.0 | 0.00 | 0.00 | 0.00 | 75 | 1016.3 |
| 20260905105652 | 77 | 279 | 3.0 | 8.0 | 0.00 | 0.00 | 0.00 | 75 | 1016.3 |
| 20260905105152 | 77 | 280 | 3.0 | 9.0 | 0.00 | 0.00 | 0.00 | 74 | 1016.3 |
| 20260905104652 | 77 | 280 | 3.0 | 9.0 | 0.00 | 0.00 | 0.00 | 74 | 1016.3 |
| 20260905104055 | 77 | 280 | 3.0 | 10.0 | 0.00 | 0.00 | 0.00 | 74 | 1016.2 |
| 20260905103555 | 77 | 280 | 5.0 | 10.0 | 0.00 | 0.00 | 0.00 | 74 | 1016.1 |
| 20260905103100 | 77 | 280 | 3.0 | 9.0 | 0.00 | 0.00 | 0.00 | 74 | 1016.1 |
| 20260905102555 | 77 | 280 | 4.0 | 9.0 | 0.00 | 0.00 | 0.00 | 74 | 1016.1 |
| 20260905102055 | 76 | 280 | 4.0 | 9.0 | 0.00 | 0.00 | 0.00 | 75 | 1016.1 |
| 20260905101555 | 76 | 280 | 4.0 | 8.0 | 0.00 | 0.00 | 0.00 | 76 | 1016.1 |
| 20260905101055 | 76 | 280 | 4.0 | 8.0 | 0.00 | 0.00 | 0.00 | 77 | 1016.1 |
| 20260905100555 | 76 | 280 | 3.0 | 8.0 | 0.00 | 0.00 | 0.00 | 77 | 1016.1 |
| 20260905100055 | 76 | 280 | 2.0 | 8.0 | 0.00 | 0.00 | 0.00 | 76 | 1016.1 |
| 20260905095555 | 77 | 280 | 1.0 | 8.0 | 0.00 | 0.00 | 0.00 | 75 | 1016.1 |
| 20260905095055 | 77 | 280 | 2.0 | 8.0 | 0.00 | 0.00 | 0.00 | 74 | 1016.1 |
| 20260905094557 | 77 | 280 | 2.0 | 8.0 | 0.00 | 0.00 | 0.00 | 74 | 1016.1 |
| 20260905094055 | 77 | 0 | 0.0 | 4.0 | 0.00 | 0.00 | 0.00 | 74 | 1016.0 |
| 20260905093555 | 77 | 280 | 1.0 | 4.0 | 0.00 | 0.00 | 0.00 | 74 | 1016.0 |
| 20260905093055 | 77 | 0 | 0.0 | 6.0 | 0.00 | 0.00 | 0.00 | 73 | 1016.0 |
| 20260905092555 | 77 | 280 | 2.0 | 6.0 | 0.00 | 0.00 | 0.00 | 73 | 1016.0 |
| 20260905092058 | 77 | 0 | 0.0 | 4.0 | 0.00 | 0.00 | 0.00 | 73 | 1016.0 |
| 20260905091555 | 77 | 0 | 0.0 | 3.0 | 0.00 | 0.00 | 0.00 | 73 | 1016.1 |
| 20260905091056 | 77 | 0 | 0.0 | 4.0 | 0.00 | 0.00 | 0.00 | 74 | 1016.1 |
| 20260905090555 | 76 | 0 | 0.0 | 6.0 | 0.00 | 0.00 | 0.00 | 75 | 1016.2 |
| 20260905090056 | 76 | 0 | 0.0 | 6.0 | 0.00 | 0.00 | 0.00 | 75 | 1016.1 |
| 20260905085555 | 76 | 280 | 1.0 | 6.0 | 0.00 | 0.00 | 0.00 | 75 | 1016.2 |
| 20260905084557 | 76 | 280 | 2.0 | 4.0 | 0.00 | 0.00 | 0.00 | 74 | 1016.2 |
| 20260905084055 | 77 | 280 | 1.0 | 6.0 | 0.00 | 0.00 | 0.00 | 75 | 1016.2 |
| 20260905083557 | 77 | 280 | 1.0 | 6.0 | 0.00 | 0.00 | 0.00 | 75 | 1016.2 |
| 20260905083055 | 77 | 0 | 0.0 | 2.0 | 0.00 | 0.00 | 0.00 | 75 | 1016.3 |
| 20260905082555 | 77 | 0 | 0.0 | 2.0 | 0.00 | 0.00 | 0.00 | 74 | 1016.4 |
| 20260905082055 | 77 | 0 | 0.0 | 2.0 | 0.00 | 0.00 | 0.00 | 75 | 1016.4 |
| 20260905081555 | 77 | 0 | 0.0 | 2.0 | 0.00 | 0.00 | 0.00 | 74 | 1016.4 |
| 20260905081055 | 78 | 0 | 0.0 | 0.0 | 0.00 | 0.00 | 0.00 | 74 | 1016.5 |
| 20260905080555 | 78 | 0 | 0.0 | 0.0 | 0.00 | 0.00 | 0.00 | 74 | 1016.5 |
| 20260905080054 | 78 | 0 | 0.0 | 0.0 | 0.00 | 0.00 | 0.00 | 74 | 1016.6 |
| 20260905075555 | 78 | 0 | 0.0 | 0.0 | 0.00 | 0.00 | 0.00 | 74 | 1016.6 |
| 20260905075055 | 78 | 0 | 0.0 | 0.0 | 0.00 | 0.00 | 0.00 | 74 | 1016.7 |
| 20260905074555 | 78 | 0 | 0.0 | 0.0 | 0.00 | 0.00 | 0.00 | 73 | 1016.7 |
| 20260905074055 | 78 | 0 | 0.0 | 0.0 | 0.00 | 0.00 | 0.00 | 73 | 1016.8 |
| 20260905073555 | 78 | 0 | 0.0 | 0.0 | 0.00 | 0.00 | 0.00 | 73 | 1016.8 |
| 20260905073055 | 79 | 0 | 0.0 | 3.0 | 0.00 | 0.00 | 0.00 | 72 | 1016.8 |
| 20260905072555 | 79 | 0 | 0.0 | 3.0 | 0.00 | 0.00 | 0.00 | 72 | 1016.9 |
| 20260905072054 | 79 | 0 | 0.0 | 0.0 | 0.00 | 0.00 | 0.00 | 72 | 1016.9 |
| 20260905071554 | 79 | 0 | 0.0 | 0.0 | 0.00 | 0.00 | 0.00 | 72 | 1017.0 |
| 20260905071054 | 79 | 0 | 0.0 | 0.0 | 0.00 | 0.00 | 0.00 | 72 | 1017.2 |
| 20260905070554 | 78 | 0 | 0.0 | 0.0 | 0.00 | 0.00 | 0.00 | 72 | 1017.2 |
| 20260905070054 | 78 | 0 | 0.0 | 0.0 | 0.00 | 0.00 | 0.00 | 73 | 1017.3 |
| 20260905065555 | 77 | 0 | 0.0 | 0.0 | 0.00 | 0.00 | 0.00 | 74 | 1017.4 |
| 20260905065055 | 77 | 0 | 0.0 | 3.0 | 0.00 | 0.00 | 0.00 | 76 | 1017.3 |
| 20260905064554 | 77 | 0 | 0.0 | 3.0 | 0.00 | 0.00 | 0.00 | 76 | 1017.3 |
| 20260905064054 | 77 | 280 | 2.0 | 3.0 | 0.00 | 0.00 | 0.00 | 75 | 1017.4 |
| 20260905063555 | 78 | 280 | 1.0 | 3.0 | 0.00 | 0.00 | 0.00 | 75 | 1017.4 |
| 20260905063055 | 78 | 0 | 0.0 | 0.0 | 0.00 | 0.00 | 0.00 | 73 | 1017.4 |
| 20260905062428 | 78 | 0 | 0.0 | 2.0 | 0.00 | 0.00 | 0.00 | 75 | 1017.5 |
| 20260905061929 | 78 | 0 | 0.0 | 1.0 | 0.00 | 0.00 | 0.00 | 75 | 1017.6 |
| 20260905061430 | 77 | 0 | 0.0 | 0.0 | 0.00 | 0.00 | 0.00 | 76 | 1017.7 |
| 20260905060928 | 77 | 0 | 0.0 | 2.0 | 0.00 | 0.00 | 0.00 | 76 | 1017.8 |
| 20260905060431 | 77 | 0 | 0.0 | 9.0 | 0.00 | 0.00 | 0.00 | 77 | 1017.9 |
| 20260905055930 | 77 | 0 | 0.0 | 9.0 | 0.00 | 0.00 | 0.00 | 77 | 1018.0 |
| 20260905055429 | 77 | 280 | 2.0 | 9.0 | 0.00 | 0.00 | 0.00 | 76 | 1018.0 |
| 20260905054928 | 77 | 280 | 1.0 | 4.0 | 0.00 | 0.00 | 0.00 | 76 | 1018.1 |
| 20260905054428 | 77 | 0 | 0.0 | 3.0 | 0.00 | 0.00 | 0.00 | 77 | 1018.4 |
| 20260905053928 | 77 | 0 | 0.0 | 0.0 | 0.00 | 0.00 | 0.00 | 78 | 1018.5 |
| 20260905053428 | 77 | 0 | 0.0 | 0.0 | 0.00 | 0.00 | 0.00 | 77 | 1018.6 |
| 20260905052928 | 77 | 0 | 0.0 | 3.0 | 0.00 | 0.00 | 0.00 | 77 | 1018.6 |
| 20260905052430 | 77 | 0 | 0.0 | 3.0 | 0.00 | 0.00 | 0.00 | 77 | 1018.5 |
| 20260905051928 | 78 | 0 | 0.0 | 4.0 | 0.00 | 0.00 | 0.00 | 76 | 1018.5 |
| 20260905051428 | 78 | 0 | 0.0 | 6.0 | 0.00 | 0.00 | 0.00 | 76 | 1018.6 |
| 20260905050928 | 78 | 280 | 2.0 | 6.0 | 0.00 | 0.00 | 0.00 | 76 | 1018.8 |
| 20260905050431 | 77 | 0 | 0.0 | 0.0 | 0.00 | 0.00 | 0.00 | 76 | 1018.8 |
| 20260905045928 | 77 | 0 | 0.0 | 0.0 | 0.00 | 0.00 | 0.00 | 77 | 1018.8 |
| 20260905045428 | 77 | 0 | 0.0 | 4.0 | 0.00 | 0.00 | 0.00 | 79 | 1018.9 |
| 20260905044928 | 78 | 0 | 0.0 | 4.0 | 0.00 | 0.00 | 0.00 | 79 | 1019.0 |
| 20260905044428 | 78 | 0 | 0.0 | 3.0 | 0.00 | 0.00 | 0.00 | 75 | 1019.0 |
| 20260905043928 | 78 | 0 | 0.0 | 7.0 | 0.00 | 0.00 | 0.00 | 73 | 1019.0 |
| 20260905043430 | 78 | 280 | 2.0 | 8.0 | 0.00 | 0.00 | 0.00 | 74 | 1019.0 |
| 20260905042928 | 78 | 280 | 5.0 | 8.0 | 0.00 | 0.00 | 0.00 | 74 | 1018.9 |
| 20260905042429 | 78 | 280 | 5.0 | 8.0 | 0.00 | 0.00 | 0.00 | 74 | 1018.8 |
| 20260905041928 | 78 | 280 | 5.0 | 8.0 | 0.00 | 0.00 | 0.00 | 75 | 1018.8 |
| 20260905041429 | 78 | 280 | 4.0 | 7.0 | 0.00 | 0.00 | 0.00 | 75 | 1018.9 |
| 20260905040930 | 79 | 280 | 3.0 | 7.0 | 0.00 | 0.00 | 0.00 | 75 | 1019.0 |
| 20260905040428 | 79 | 280 | 2.0 | 6.0 | 0.00 | 0.00 | 0.00 | 74 | 1018.9 |
| 20260905035928 | 79 | 280 | 1.0 | 6.0 | 0.00 | 0.00 | 0.00 | 73 | 1019.1 |
| 20260905035343 | 80 | 0 | 0.0 | 2.0 | 0.00 | 0.00 | 0.00 | 72 | 1019.1 |
| 20260905034811 | 80 | 0 | 0.0 | 2.0 | 0.00 | 0.00 | 0.00 | 72 | 1019.1 |
| 20260905033651 | 80 | 0 | 0.0 | 2.0 | 0.00 | 0.00 | 0.00 | 72 | 1018.8 |
| 20260905033149 | 80 | 0 | 0.0 | 2.0 | 0.00 | 0.00 | 0.00 | 72 | 1018.8 |
| 20260905032649 | 80 | 0 | 0.0 | 0.0 | 0.00 | 0.00 | 0.00 | 71 | 1018.8 |
| 20260905032149 | 80 | 0 | 0.0 | 0.0 | 0.00 | 0.00 | 0.00 | 71 | 1018.7 |
| 20260905031649 | 79 | 0 | 0.0 | 0.0 | 0.00 | 0.00 | 0.00 | 72 | 1018.7 |
| 20260905031151 | 79 | 0 | 0.0 | 0.0 | 0.00 | 0.00 | 0.00 | 72 | 1018.5 |
| 20260905030649 | 79 | 0 | 0.0 | 0.0 | 0.00 | 0.00 | 0.00 | 73 | 1018.4 |
| 20260905030149 | 79 | 0 | 0.0 | 0.0 | 0.00 | 0.00 | 0.00 | 75 | 1018.3 |
| 20260905025649 | 79 | 0 | 0.0 | 0.0 | 0.00 | 0.00 | 0.00 | 75 | 1018.3 |
| 20260905025148 | 79 | 0 | 0.0 | 0.0 | 0.00 | 0.00 | 0.00 | 77 | 1018.4 |
| 20260905024649 | 79 | 0 | 0.0 | 0.0 | 0.00 | 0.00 | 0.00 | 77 | 1018.4 |
| 20260905024149 | 79 | 0 | 0.0 | 1.0 | 0.00 | 0.00 | 0.00 | 77 | 1018.4 |
| 20260905023649 | 79 | 0 | 0.0 | 1.0 | 0.00 | 0.00 | 0.00 | 76 | 1018.3 |
| 20260905023149 | 79 | 0 | 0.0 | 3.0 | 0.00 | 0.00 | 0.00 | 75 | 1018.2 |